USA 167 1 27691U 03008A 21061.65570383 .00000050 00000-0 00000-0 0 9998 2 27691 7.1318 57.4405 0003822 339.8546 229.1823 1.00272497 13570 DELTA 4 R/B 1 27692U 03008B 21061.23681449 .00006089 00000-0 67250-3 0 9990 2 27692 25.2174 110.6057 6272721 359.1152 0.2462 3.66723791 21553 IABS R/B 1 27693U 03008C 21061.28042876 -.00000267 00000-0 00000-0 0 9991 2 27693 12.1614 24.1948 0015989 198.6710 161.3051 1.01120540 7071